Overview Statistics Trail Chart Weather Telemetry Raw packets
 

This is the latest recevied weather packets stored in our database for station/object WJ9H. If no packets are shown the sender has not sent any weather packets the latest 10 day(s).

<< 1 2 3 4 5 6 7 >>
Time Temp. Humidity Pressure Rain* Wind** Luminosity Snow
1788557629 28.89° C - 1013.6 hPa 0 mm - - -
1788557502 28.33° C - 1013.2 hPa 0 mm - - -
1788556742 28.89° C - 1013.2 hPa 0 mm - - -
1788556739 28.89° C - 1013.6 hPa 0 mm - - -
1788556301 28.89° C - 1013.6 hPa 0 mm - - -
1788556145 28.89° C - 1013.2 hPa 0 mm - - -
1788556076 28.89° C - 1012.9 hPa 0 mm - - -
1788555547 28.89° C - 1012.9 hPa 0 mm - - -
1788555102 29.44° C - 1012.9 hPa 0 mm - - -
1788554214 29.44° C - 1013.2 hPa 0 mm - - -
1788553900 29.44° C - 1012.9 hPa 0 mm - - -
1788553760 29.44° C - 1013.2 hPa 0 mm - - -
1788552700 30.56° C - 1012.9 hPa 0 mm - - -
1788552609 30° C - 1012.9 hPa 0 mm - - -
1788551940 30° C - 1012.9 hPa 0 mm - - -
1788551502 30° C - 1013.2 hPa 0 mm - - -
1788550500 30° C - 1013.6 hPa 0 mm - - -
1788550302 30° C - 1013.6 hPa 0 mm - - -
1788550203 29.44° C - 1013.6 hPa 0 mm - - -
1788550149 30° C - 1013.6 hPa 0 mm - - -
1788549922 30° C - 1014.3 hPa 0 mm - - -
1788549545 29.44° C - 1013.6 hPa 0 mm - - -
1788549101 30° C - 1014.3 hPa 0 mm - - -
1788548940 30° C - 1014.3 hPa 0 mm - - -
1788548346 29.44° C - 1014.3 hPa 0 mm - - -

* Rain latest hour (hover to see other rain measurements)
** Current wind speed in m/s (hover to see current wind gust speed)